Location: Banksville Park
(38.5557°N, 75.1182°W)
Time: 21:53:38
(UTC+00:00)

Cosmos 2026 Rocket - Pass Details

Date: 19 September 2020
Orbit: 940 x 1000 km, 82.9° (Epoch: 20 October)

Event Time Altitude Azimuth Distance (km) Brightness Sun altitude
Rises 01:12:21 0° 358° (N) 3,717 7.4 -25.4°
Reaches altitude 10° 01:14:58 10° 3° (N) 2,769 6.6 -25.8°
Enters shadow 01:20:38 52° 61° (ENE) 1,224 4.2 -26.8°
